Weather History for Las Vegas, NM

Change the Weather History Date:

Wednesday, July 9, 2014

  Actual Average Record
Temperature  
Mean Temperature 67 °F -  
Max Temperature 81 °F 84 °F 94 °F (1951)
Min Temperature 54 °F 53 °F 37 °F (1972)
Cooling Degree Days 2    
Growing Degree Days 17 (Base 50)    
Moisture  
Dew Point 49 °F    
Average Humidity 53    
Maximum Humidity 84    
Minimum Humidity 31    
Precipitation  
Precipitation 0.00 in - - ()
Sea Level Pressure  
Sea Level Pressure 30.05 in    
Wind  
Wind Speed 7 mph (South)    
Max Wind Speed 18 mph    
Max Gust Speed 25 mph    
Visibility 10 miles    
Events Rain , Thunderstorm    
Averages and records for this station are not official NWS values.
T = Trace of Precipitation, MM = Missing Value Source: NWS Daily Summary

Daily Weather History Graph

Daily Weather History Graph

Search for Another Location

Airport:

Trip Planner

Search our weather history database for the weather conditions in past years. The results will help you decide how hot, cold, wet, or windy it might be!

Date:

Astronomy

Jul. 09, 2014 Rise Set
Actual Time 5:52 AM MDT 8:18 PM MDT
Civil Twilight 5:22 AM MDT 8:48 PM MDT
Nautical Twilight 4:46 AM MDT 9:24 PM MDT
Astronomical Twilight 4:06 AM MDT 10:04 PM MDT
Moon 5:34 PM MDT (7/9) 3:10 AM MDT (7/9)
Length of Visible Light 15h 25m
Length of Day
14h 26m
Waxing Gibbous, 90% of the Moon is Illuminated
Jul 9
Waxing Gibbous
Jul 12
Full
Jul 18
Last Quarter
Jul 26
New
Aug 3
First Quarter

Hourly Weather History & Observations

Time (MDT) Temp. Dew Point Humidity Pressure Visibility Wind Dir Wind Speed Gust Speed Precip Events Conditions
12:53 AM 60.1 °F 51.1 °F 72% 30.05 in 10.0 mi ENE 3.5 mph - N/A   Scattered Clouds
1:53 AM 59.0 °F 48.9 °F 69% 30.03 in 10.0 mi North 4.6 mph - N/A   Clear
2:53 AM 57.0 °F 48.0 °F 72% 30.03 in 10.0 mi Calm Calm - N/A   Scattered Clouds
3:53 AM 57.0 °F 46.9 °F 69% 30.01 in 10.0 mi North 5.8 mph - N/A   Clear
4:53 AM 54.0 °F 48.0 °F 80% 30.02 in 10.0 mi East 3.5 mph - N/A   Partly Cloudy
5:53 AM 55.9 °F 48.0 °F 75% 30.06 in 10.0 mi East 5.8 mph - N/A   Clear
6:53 AM 55.9 °F 51.1 °F 84% 30.07 in 10.0 mi Calm Calm - N/A   Partly Cloudy
7:53 AM 63.0 °F 51.1 °F 65% 30.05 in 10.0 mi Calm Calm - N/A   Clear
8:53 AM 66.9 °F 50.0 °F 54% 30.04 in 10.0 mi NNE 3.5 mph - N/A   Clear
9:53 AM 71.1 °F 51.1 °F 49% 30.01 in 10.0 mi South 6.9 mph - N/A   Clear
10:53 AM 75.0 °F 51.1 °F 43% 29.99 in 10.0 mi South 9.2 mph - N/A   Clear
11:53 AM 78.1 °F 51.1 °F 39% 29.97 in 10.0 mi SSE 16.1 mph 23.0 mph N/A   Clear
12:53 PM 75.9 °F 48.9 °F 38% 29.97 in 10.0 mi SSW 11.5 mph 21.9 mph N/A   Scattered Clouds
1:09 PM 75.9 °F 48.0 °F 37% 30.29 in 10.0 mi South 10.4 mph - N/A Thunderstorm Mostly Cloudy
1:26 PM 80.1 °F 50.0 °F 35% 30.28 in 10.0 mi South 15.0 mph 23.0 mph N/A   Mostly Cloudy
1:53 PM 75.0 °F 51.1 °F 43% 29.96 in 10.0 mi SW 18.4 mph - 0.00 in Rain Light Rain
2:29 PM 75.9 °F 48.0 °F 37% 30.28 in 10.0 mi SE 11.5 mph 20.7 mph 0.00 in Thunderstorm Mostly Cloudy
2:43 PM 75.0 °F 46.9 °F 37% 30.27 in - SE 6.9 mph 17.3 mph 0.00 in Thunderstorm Thunderstorm
2:53 PM 77.0 °F 46.0 °F 33% 29.96 in 10.0 mi South 13.8 mph 17.3 mph 0.00 in Thunderstorm Unknown
3:02 PM 78.1 °F 45.0 °F 31% 30.27 in 10.0 mi South 16.1 mph - N/A   Unknown
3:53 PM 77.0 °F 46.9 °F 34% 29.95 in 10.0 mi SSW 15.0 mph - N/A   Unknown
4:53 PM 71.1 °F 46.9 °F 42% 29.99 in 10.0 mi West 8.1 mph - N/A   Overcast
6:53 PM 69.1 °F 48.0 °F 47% 29.98 in 10.0 mi SSE 15.0 mph - N/A   Clear
7:53 PM 66.0 °F 50.0 °F 56% 29.96 in 10.0 mi SSW 8.1 mph - N/A   Clear
8:53 PM 64.0 °F 51.1 °F 63% 29.96 in 10.0 mi WSW 5.8 mph - N/A   Partly Cloudy
9:53 PM 64.9 °F 51.1 °F 61% 29.99 in 10.0 mi WSW 11.5 mph - N/A   Overcast
10:53 PM 63.0 °F 51.1 °F 65% 29.98 in 10.0 mi WSW 16.1 mph 25.3 mph N/A   Mostly Cloudy
11:53 PM 63.0 °F 50.0 °F 63% 29.95 in 10.0 mi SW 11.5 mph - N/A   Mostly Cloudy